User: anonymous   Login
Location: Newark
(50.1751°N, 5.6239°W)
Time: 03:45:37
(UTC+00:00)
Language:

Hubble Space Telescope - Orbit

View from above orbital plane
View from above orbital plane
View from above satellite
View from above satellite

Ground track
Ground track

The orbit data is extracted from the following two-line orbital elements,

1 20580U 90037B   21290.21106323  .00000964  00000-0  47232-4 0  9997
2 20580  28.4711 339.3724 0002392 296.8228 112.0584 15.09783769529679
Epoch (UTC): 17 October 2021 05:03:55
Eccentricity: 0.0002392
inclination: 28.4711°
perigee height: 535 km
apogee height: 538 km
right ascension of ascending node: 339.3724°
argument of perigee: 296.8228°
revolutions per day: 15.09783769
mean anomaly at epoch: 112.0584°
orbit number at epoch: 52967

The dashed part of the orbit path shows where the satellite is in the earth's shadow,  

DLR